O3B FM2

Last updated on Mon Sep 07 2026 00:03:17 GMT+0000 (Coordinated Universal Time)

1 39190U 13031C 26249.38038824 -.00000024 00000+0 00000+0 0 9994 2 39190 0.0346 356.7653 0002622 165.1795 198.0643 5.00116088241173
UTC large
Height (km)
Speed (km/s)
/
Latitude / Longitude
Inclination (degrees)
Orbital Period (minutes)
Azimuth
Elevation
Range (km)
Doppler Factor

Next 0 passes for location: London (51.5072 / 0.1276)

No passes found over London.
O3B FM2